Weather Roundup
Issued by NWS Chicago, IL

Home | Current Version | Previous Version | Graphics & Text | Print | Product List | Glossary On
Versions: 1 2 3 4 5 6 7 8 9 10 11 12 13 14 15 16 17 18 19 20 21 22 23 24 25 26 27 28 29 30 31 32 33 34 35 36 37 38 39 40 41 42 43 44 45 46 47 48 49 50
000
NZUS59 KLOT 052012
HRRLOT

CHICAGO AREA WEATHER ROUNDUP
NATIONAL WEATHER SERVICE CHICAGO/ROMEOVILLE IL
300 PM CDT TUE MAY 05 2015

NOTE: "FAIR" INDICATES FEW OR NO CLOUDS BELOW 12,000 FEET WITH NO
SIGNIFICANT WEATHER AND/OR OBSTRUCTIONS TO VISIBILITY.

* THESE STATIONS ARE NOT UNDER NWS QUALITY CONTROL. THEY ALSO MAY NOT
  REPORT WEATHER SUCH AS PRECIPITATION OR FOG.

ILZ005-006-012>014-019>023-052100-
NORTHEAST ILLINOIS

CITY           SKY/WX    TMP DP  RH WIND       PRES   REMARKS
OHARE          FOG       50  49  96 NE10      30.22F VSB 1/4
MIDWAY         CLOUDY    57  52  83 N9        30.22F FOG
AURORA         CLOUDY    61  54  77 NE14      30.20F HAZE
LANSING*       PTSUNNY   56  51  84 N7        30.21F HAZE
JOLIET*        CLOUDY    66  60  80 NE10      30.19S HAZE
WAUKEGAN       CLOUDY    46  45  96 NE9       30.25F FOG
DUPAGE AIRPORT CLOUDY    57  52  83 NE12      30.21F
WHEELING       CLOUDY    49  47  93 NE12      30.26S FOG
KANKAKEE*      MOSUNNY   75  67  77 NE7       30.16F
MORRIS*        PTSUNNY   67  61  80 N7        30.16F HAZE
LEWIS AIRPORT* CLOUDY    61  56  82 NE13      30.19F HAZE
NORTHERLY IS     N/A     47  46  97 N7          N/A
$$

WIZ051-052-058>065-066-070>072-052100-
SOUTHEAST WISCONSIN

CITY           SKY/WX    TMP DP  RH WIND       PRES   REMARKS
MILWAUKEE      LGT RAIN  47  42  83 NE10      30.29F
KENOSHA*       CLOUDY    48  45  89 NE12      30.27F
RACINE*        CLOUDY    46  43  89 NE10      30.29F
BURLINGTON     CLOUDY    46  45  95 E10       30.27S
WAUKESHA       CLOUDY    48  46  93 E9        30.29F
WEST BEND      CLOUDY    52  43  71 SE10      30.29F
$$

INZ001>003-010>013-019-020-052100-
NORTHWEST INDIANA

CITY           SKY/WX    TMP DP  RH WIND       PRES   REMARKS
GARY*          FOG       52 N/A N/A N6        30.22F VSB 1/4
MICHIGAN CITY* NOT AVBL
RENSSELAER*    NOT AVBL
VALPARAISO     CLOUDY    67  63  87 N8        30.19F
$$

LMZ740>746-052100-
SOUTHERN LAKE MICHIGAN

STATION/POSITION TIME  SKY/WX   TEMP WIND        PRES    VSBY
                                AIR  DIR/SP/G
                 (UTC)          (F)  (DEG/KT/KT) (MB)    (MI)
HARRISON CRIB    1900            44  360/ 10/ 11   N/A
BURNHAM HARBOR   2000            48   20/  5/ 12   N/A
CALUMET HARBOR   1912            47  340/ 12/ 14   N/A
BURNS HARBOR     1900            49  350/  2/  3 1023.7S
MICHIGAN CITY    1900            53   20/  8/  9   N/A
$$

ABBREVIATIONS USED IN REMARKS
   TC - TEMPERATURE IN CELSIUS
  WCI - WIND CHILL INDEX
   HX - HEAT INDEX
  VSB - VISIBILITY
$$



USA.gov is the U.S. government's official web portal to all federal, state and local government web resources and services.